Time,TemperatureF,DewpointF,PressureIn,WindDirection,WindDirectionDegrees,WindSpeedMPH,WindSpeedGustMPH,Humidity,HourlyPrecipIn,Conditions,Clouds,dailyrainin,SoftwareType,DateUTC
2013-01-14 00:00:00,28.0,0.0,30.18,NNW,338,10.0,10.0,29,-99.99,,,-99.99,,2013-01-14 08:00:00,
2013-01-14 00:08:00,28.0,0.0,30.18,NNW,338,12.0,15.0,27,-99.99,,,-99.99,,2013-01-14 08:08:00,
2013-01-14 00:16:00,28.0,0.0,30.19,NNW,338,12.0,16.0,29,-99.99,,,-99.99,,2013-01-14 08:16:00,
2013-01-14 00:24:00,29.0,0.0,30.19,NNW,336,14.0,16.0,28,-99.99,,,-99.99,,2013-01-14 08:24:00,
2013-01-14 00:32:00,29.0,0.0,30.18,NNW,341,22.0,23.0,26,-99.99,,,-99.99,,2013-01-14 08:32:00,
2013-01-14 00:40:00,30.0,0.0,30.19,North,351,14.0,22.0,25,-99.99,,,-99.99,,2013-01-14 08:40:00,
2013-01-14 00:48:00,30.0,0.0,30.18,NNW,344,21.0,24.0,29,-99.99,,,-99.99,,2013-01-14 08:48:00,
2013-01-14 00:56:00,31.0,0.0,30.18,NNW,342,20.0,25.0,24,-99.99,,,-99.99,,2013-01-14 08:56:00,
2013-01-14 01:04:00,30.0,0.0,30.18,NW,324,15.0,22.0,25,-99.99,,,-99.99,,2013-01-14 09:04:00,
2013-01-14 01:12:00,29.0,0.0,30.19,NW,325,20.0,22.0,28,-99.99,,,-99.99,,2013-01-14 09:12:00,
2013-01-14 01:20:00,28.0,0.0,30.19,NW,322,14.0,20.0,27,-99.99,,,-99.99,,2013-01-14 09:20:00,
2013-01-14 01:28:00,29.0,0.0,30.19,NW,306,18.0,21.0,27,-99.99,,,-99.99,,2013-01-14 09:28:00,
2013-01-14 01:36:00,29.0,0.0,30.19,NNW,332,17.0,25.0,28,-99.99,,,-99.99,,2013-01-14 09:36:00,
2013-01-14 01:44:00,29.0,0.0,30.19,NNW,330,21.0,23.0,27,-99.99,,,-99.99,,2013-01-14 09:44:00,
2013-01-14 01:52:00,29.0,0.0,30.20,NNW,347,23.0,23.0,26,-99.99,,,-99.99,,2013-01-14 09:52:00,
2013-01-14 02:00:00,30.0,0.0,30.20,North,2,15.0,21.0,29,-99.99,,,-99.99,,2013-01-14 10:00:00,
2013-01-14 02:08:00,27.0,0.0,30.21,ENE,76,5.0,8.0,30,-99.99,,,-99.99,,2013-01-14 10:08:00,
2013-01-14 02:16:00,26.0,0.0,30.22,SE,137,2.0,3.0,29,-99.99,,,-99.99,,2013-01-14 10:16:00,
2013-01-14 02:24:00,27.0,0.0,30.21,West,272,2.0,5.0,30,-99.99,,,-99.99,,2013-01-14 10:24:00,
2013-01-14 02:32:00,27.0,0.0,30.22,South,169,0.0,5.0,29,-99.99,,,-99.99,,2013-01-14 10:32:00,
2013-01-14 02:40:00,26.0,0.0,30.22,WNW,288,5.0,6.0,28,-99.99,,,-99.99,,2013-01-14 10:40:00,
2013-01-14 02:48:00,28.0,0.0,30.22,West,279,9.0,9.0,30,-99.99,,,-99.99,,2013-01-14 10:48:00,
2013-01-14 02:56:00,24.0,0.0,30.22,West,281,8.0,9.0,31,-99.99,,,-99.99,,2013-01-14 10:56:00,
2013-01-14 03:04:00,23.0,0.0,30.22,WNW,283,10.0,12.0,31,-99.99,,,-99.99,,2013-01-14 11:04:00,
2013-01-14 03:12:00,22.0,0.0,30.22,NE,36,3.0,5.0,33,-99.99,,,-99.99,,2013-01-14 11:12:00,
2013-01-14 03:20:00,24.0,0.0,30.22,NW,307,3.0,5.0,30,-99.99,,,-99.99,,2013-01-14 11:20:00,
2013-01-14 03:28:00,23.0,0.0,30.22,SSE,155,5.0,6.0,31,-99.99,,,-99.99,,2013-01-14 11:28:00,
2013-01-14 03:36:00,24.0,0.0,30.22,South,171,6.0,9.0,33,-99.99,,,-99.99,,2013-01-14 11:36:00,
2013-01-14 03:44:00,24.0,0.0,30.22,SSW,207,6.0,12.0,34,-99.99,,,-99.99,,2013-01-14 11:44:00,
2013-01-14 03:52:00,23.0,0.0,30.22,SSW,200,9.0,9.0,34,-99.99,,,-99.99,,2013-01-14 11:52:00,
2013-01-14 04:00:00,23.0,0.0,30.22,South,182,7.0,10.0,37,-99.99,,,-99.99,,2013-01-14 12:00:00,
2013-01-14 04:08:00,23.0,0.0,30.22,SW,222,8.0,9.0,32,-99.99,,,-99.99,,2013-01-14 12:08:00,
2013-01-14 04:16:00,22.0,0.0,30.22,SSE,165,5.0,9.0,33,-99.99,,,-99.99,,2013-01-14 12:16:00,
2013-01-14 04:24:00,22.0,0.0,30.23,WSW,242,7.0,8.0,33,-99.99,,,-99.99,,2013-01-14 12:24:00,
2013-01-14 04:32:00,20.0,0.0,30.22,WSW,238,9.0,10.0,34,-99.99,,,-99.99,,2013-01-14 12:32:00,
2013-01-14 04:40:00,21.0,0.0,30.22,SSW,202,9.0,9.0,36,-99.99,,,-99.99,,2013-01-14 12:40:00,
2013-01-14 04:48:00,22.0,0.0,30.22,SSW,200,12.0,12.0,35,-99.99,,,-99.99,,2013-01-14 12:48:00,
2013-01-14 04:56:00,21.0,0.0,30.22,WSW,237,7.0,8.0,36,-99.99,,,-99.99,,2013-01-14 12:56:00,
2013-01-14 05:04:00,20.0,0.0,30.23,WSW,243,5.0,9.0,35,-99.99,,,-99.99,,2013-01-14 13:04:00,
2013-01-14 05:12:00,19.0,0.0,30.23,WSW,240,3.0,3.0,35,-99.99,,,-99.99,,2013-01-14 13:12:00,
2013-01-14 05:20:00,15.0,0.0,30.23,WNW,295,2.0,2.0,39,-99.99,,,-99.99,,2013-01-14 13:20:00,
2013-01-14 05:28:00,12.0,0.0,30.24,NNE,13,0.0,3.0,44,-99.99,,,-99.99,,2013-01-14 13:28:00,
2013-01-14 05:36:00,13.0,0.0,30.24,NW,321,3.0,3.0,42,-99.99,,,-99.99,,2013-01-14 13:36:00,
2013-01-14 05:44:00,10.0,0.0,30.25,NW,323,3.0,7.0,44,-99.99,,,-99.99,,2013-01-14 13:44:00,
2013-01-14 05:52:00,10.0,0.0,30.25,NNW,348,2.0,3.0,46,-99.99,,,-99.99,,2013-01-14 13:52:00,
2013-01-14 06:00:00,12.0,0.0,30.26,SSE,148,1.0,2.0,43,-99.99,,,-99.99,,2013-01-14 14:00:00,
2013-01-14 06:08:00,13.0,0.0,30.26,SSE,149,1.0,2.0,42,-99.99,,,-99.99,,2013-01-14 14:08:00,
2013-01-14 06:16:00,13.0,0.0,30.26,SE,142,2.0,2.0,43,-99.99,,,-99.99,,2013-01-14 14:16:00,
2013-01-14 06:24:00,13.0,0.0,30.27,SSE,150,5.0,5.0,40,-99.99,,,-99.99,,2013-01-14 14:24:00,
2013-01-14 06:32:00,12.0,0.0,30.28,SSE,164,6.0,7.0,40,-99.99,,,-99.99,,2013-01-14 14:32:00,
2013-01-14 06:40:00,13.0,0.0,30.29,SSE,154,3.0,5.0,42,-99.99,,,-99.99,,2013-01-14 14:40:00,
2013-01-14 06:48:00,13.0,0.0,30.29,SSW,192,2.0,2.0,45,-99.99,,,-99.99,,2013-01-14 14:48:00,
2013-01-14 06:56:00,16.0,0.0,30.30,SSW,207,5.0,5.0,40,-99.99,,,-99.99,,2013-01-14 14:56:00,
2013-01-14 07:04:00,17.0,0.0,30.30,SW,227,5.0,6.0,35,-99.99,,,-99.99,,2013-01-14 15:04:00,
2013-01-14 07:12:00,15.0,0.0,30.30,SSW,207,3.0,5.0,41,-99.99,,,-99.99,,2013-01-14 15:12:00,
2013-01-14 07:20:00,18.0,0.0,30.31,South,187,2.0,5.0,36,-99.99,,,-99.99,,2013-01-14 15:20:00,
2013-01-14 07:28:00,16.0,0.0,30.31,South,185,3.0,3.0,37,-99.99,,,-99.99,,2013-01-14 15:28:00,
2013-01-14 07:36:00,15.0,0.0,30.32,SSE,162,5.0,5.0,36,-99.99,,,-99.99,,2013-01-14 15:36:00,
2013-01-14 07:44:00,15.0,0.0,30.32,North,7,3.0,5.0,38,-99.99,,,-99.99,,2013-01-14 15:44:00,
2013-01-14 07:52:00,12.0,0.0,30.33,WNW,296,3.0,5.0,40,-99.99,,,-99.99,,2013-01-14 15:52:00,
2013-01-14 08:00:00,15.0,0.0,30.33,North,359,2.0,3.0,39,-99.99,,,-99.99,,2013-01-14 16:00:00,
2013-01-14 08:08:00,18.0,0.0,30.33,ENE,77,1.0,2.0,36,-99.99,,,-99.99,,2013-01-14 16:08:00,
2013-01-14 08:16:00,19.0,0.0,30.33,ENE,58,1.0,1.0,36,-99.99,,,-99.99,,2013-01-14 16:16:00,
2013-01-14 08:24:00,19.0,0.0,30.33,ENE,70,2.0,2.0,37,-99.99,,,-99.99,,2013-01-14 16:24:00,
2013-01-14 08:32:00,23.0,0.0,30.34,NNE,13,1.0,1.0,31,-99.99,,,-99.99,,2013-01-14 16:32:00,
2013-01-14 08:40:00,23.0,0.0,30.34,SSE,160,1.0,1.0,29,-99.99,,,-99.99,,2013-01-14 16:40:00,
2013-01-14 08:48:00,21.0,0.0,30.34,ESE,123,5.0,5.0,35,-99.99,,,-99.99,,2013-01-14 16:48:00,
2013-01-14 08:56:00,21.0,0.0,30.34,SE,127,2.0,6.0,34,-99.99,,,-99.99,,2013-01-14 16:56:00,
2013-01-14 09:04:00,22.0,0.0,30.34,South,176,2.0,5.0,30,-99.99,,,-99.99,,2013-01-14 17:04:00,
2013-01-14 09:12:00,23.0,0.0,30.34,SSE,163,2.0,5.0,31,-99.99,,,-99.99,,2013-01-14 17:12:00,
2013-01-14 09:20:00,24.0,0.0,30.34,South,170,2.0,5.0,29,-99.99,,,-99.99,,2013-01-14 17:20:00,
2013-01-14 09:28:00,25.0,0.0,30.34,South,182,3.0,6.0,28,-99.99,,,-99.99,,2013-01-14 17:28:00,
2013-01-14 09:36:00,27.0,0.0,30.34,South,178,5.0,6.0,27,-99.99,,,-99.99,,2013-01-14 17:36:00,
2013-01-14 09:44:00,28.0,0.0,30.34,SSW,195,2.0,5.0,31,-99.99,,,-99.99,,2013-01-14 17:44:00,
2013-01-14 09:52:00,30.0,0.0,30.34,South,183,5.0,6.0,27,-99.99,,,-99.99,,2013-01-14 17:52:00,
2013-01-14 10:00:00,30.0,0.0,30.34,South,179,3.0,6.0,27,-99.99,,,-99.99,,2013-01-14 18:00:00,
2013-01-14 10:08:00,32.0,0.0,30.34,South,187,5.0,5.0,26,-99.99,,,-99.99,,2013-01-14 18:08:00,
2013-01-14 10:16:00,32.0,0.0,30.34,SSE,157,2.0,5.0,24,-99.99,,,-99.99,,2013-01-14 18:16:00,
2013-01-14 10:24:00,33.0,0.0,30.34,SSW,197,2.0,3.0,23,-99.99,,,-99.99,,2013-01-14 18:24:00,
2013-01-14 10:32:00,33.0,0.0,30.33,South,181,2.0,7.0,24,-99.99,,,-99.99,,2013-01-14 18:32:00,
2013-01-14 10:40:00,34.0,0.0,30.33,South,185,3.0,7.0,23,-99.99,,,-99.99,,2013-01-14 18:40:00,
2013-01-14 10:48:00,34.0,0.0,30.33,South,172,5.0,7.0,21,-99.99,,,-99.99,,2013-01-14 18:48:00,
2013-01-14 10:56:00,34.0,0.0,30.32,SW,218,6.0,9.0,21,-99.99,,,-99.99,,2013-01-14 18:56:00,
2013-01-14 11:04:00,35.0,0.0,30.32,SSE,165,2.0,6.0,23,-99.99,,,-99.99,,2013-01-14 19:04:00,
2013-01-14 11:12:00,35.0,0.0,30.32,WNW,286,0.0,6.0,22,-99.99,,,-99.99,,2013-01-14 19:12:00,
2013-01-14 11:20:00,36.0,0.0,30.32,SSE,167,3.0,7.0,20,-99.99,,,-99.99,,2013-01-14 19:20:00,
2013-01-14 11:28:00,36.0,0.0,30.32,SE,130,5.0,8.0,22,-99.99,,,-99.99,,2013-01-14 19:28:00,
2013-01-14 11:36:00,36.0,0.0,30.31,South,177,7.0,7.0,21,-99.99,,,-99.99,,2013-01-14 19:36:00,
2013-01-14 11:44:00,38.0,0.0,30.31,SW,233,1.0,2.0,19,-99.99,,,-99.99,,2013-01-14 19:44:00,
2013-01-14 11:52:00,38.0,0.0,30.30,SSE,165,3.0,8.0,20,-99.99,,,-99.99,,2013-01-14 19:52:00,
2013-01-14 12:00:00,38.0,0.0,30.30,SE,146,1.0,2.0,20,-99.99,,,-99.99,,2013-01-14 20:00:00,
2013-01-14 12:08:00,38.0,0.0,30.29,ESE,117,3.0,7.0,19,-99.99,,,-99.99,,2013-01-14 20:08:00,
2013-01-14 12:16:00,37.0,0.0,30.29,SE,124,7.0,7.0,18,-99.99,,,-99.99,,2013-01-14 20:16:00,
2013-01-14 12:24:00,38.0,0.0,30.29,SSW,204,2.0,6.0,20,-99.99,,,-99.99,,2013-01-14 20:24:00,
2013-01-14 12:32:00,37.0,0.0,30.28,ESE,102,3.0,7.0,21,-99.99,,,-99.99,,2013-01-14 20:32:00,
2013-01-14 12:40:00,37.0,0.0,30.27,SE,142,6.0,6.0,17,-99.99,,,-99.99,,2013-01-14 20:40:00,
2013-01-14 12:48:00,37.0,0.0,30.27,SE,141,2.0,5.0,17,-99.99,,,-99.99,,2013-01-14 20:48:00,
2013-01-14 12:56:00,38.0,0.0,30.27,SE,128,5.0,7.0,19,-99.99,,,-99.99,,2013-01-14 20:56:00,
2013-01-14 13:04:00,38.0,0.0,30.27,SE,132,7.0,7.0,17,-99.99,,,-99.99,,2013-01-14 21:04:00,
2013-01-14 13:12:00,39.0,0.0,30.26,South,181,3.0,5.0,17,-99.99,,,-99.99,,2013-01-14 21:12:00,
2013-01-14 13:20:00,38.0,0.0,30.27,ESE,106,1.0,6.0,16,-99.99,,,-99.99,,2013-01-14 21:20:00,
2013-01-14 13:28:00,39.0,0.0,30.27,East,93,1.0,8.0,16,-99.99,,,-99.99,,2013-01-14 21:28:00,
2013-01-14 13:36:00,40.0,0.0,30.27,SE,133,7.0,10.0,17,-99.99,,,-99.99,,2013-01-14 21:36:00,
2013-01-14 13:44:00,40.0,0.0,30.28,SSE,161,5.0,7.0,17,-99.99,,,-99.99,,2013-01-14 21:44:00,
2013-01-14 13:52:00,40.0,0.0,30.28,South,169,6.0,8.0,15,-99.99,,,-99.99,,2013-01-14 21:52:00,
2013-01-14 14:00:00,40.0,0.0,30.28,NW,312,2.0,6.0,16,-99.99,,,-99.99,,2013-01-14 22:00:00,
2013-01-14 14:08:00,41.0,0.0,30.28,South,189,8.0,8.0,17,-99.99,,,-99.99,,2013-01-14 22:08:00,
2013-01-14 14:16:00,40.0,0.0,30.28,SE,137,7.0,9.0,15,-99.99,,,-99.99,,2013-01-14 22:16:00,
2013-01-14 14:24:00,39.0,0.0,30.28,SE,141,6.0,9.0,16,-99.99,,,-99.99,,2013-01-14 22:24:00,
2013-01-14 14:32:00,40.0,0.0,30.28,SE,139,6.0,7.0,17,-99.99,,,-99.99,,2013-01-14 22:32:00,
2013-01-14 14:40:00,40.0,0.0,30.28,ESE,112,7.0,9.0,17,-99.99,,,-99.99,,2013-01-14 22:40:00,
2013-01-14 14:48:00,39.0,0.0,30.28,SSE,151,7.0,9.0,15,-99.99,,,-99.99,,2013-01-14 22:48:00,
2013-01-14 14:56:00,39.0,0.0,30.29,SE,125,7.0,9.0,15,-99.99,,,-99.99,,2013-01-14 22:56:00,
2013-01-14 15:04:00,40.0,0.0,30.29,SSE,152,7.0,9.0,17,-99.99,,,-99.99,,2013-01-14 23:04:00,
2013-01-14 15:12:00,40.0,0.0,30.29,ESE,113,5.0,7.0,17,-99.99,,,-99.99,,2013-01-14 23:12:00,
2013-01-14 15:20:00,40.0,0.0,30.29,SE,137,6.0,7.0,15,-99.99,,,-99.99,,2013-01-14 23:20:00,
2013-01-14 15:28:00,40.0,0.0,30.29,ESE,115,6.0,7.0,15,-99.99,,,-99.99,,2013-01-14 23:28:00,
2013-01-14 15:36:00,40.0,0.0,30.29,SE,140,8.0,10.0,16,-99.99,,,-99.99,,2013-01-14 23:36:00,
2013-01-14 15:44:00,40.0,0.0,30.29,SE,134,6.0,6.0,15,-99.99,,,-99.99,,2013-01-14 23:44:00,
2013-01-14 15:52:00,40.0,0.0,30.29,SE,135,5.0,7.0,15,-99.99,,,-99.99,,2013-01-14 23:52:00,
2013-01-14 16:00:00,40.0,0.0,30.29,SSE,150,5.0,8.0,15,-99.99,,,-99.99,,2013-01-15 00:00:00,
2013-01-14 16:08:00,39.0,0.0,30.29,SE,131,7.0,8.0,17,-99.99,,,-99.99,,2013-01-15 00:08:00,
2013-01-14 16:16:00,39.0,0.0,30.29,SE,132,7.0,8.0,15,-99.99,,,-99.99,,2013-01-15 00:16:00,
2013-01-14 16:24:00,39.0,0.0,30.29,SE,140,9.0,9.0,15,-99.99,,,-99.99,,2013-01-15 00:24:00,
2013-01-14 16:32:00,39.0,0.0,30.30,SE,127,6.0,7.0,17,-99.99,,,-99.99,,2013-01-15 00:32:00,
2013-01-14 16:40:00,38.0,0.0,30.30,SE,134,8.0,8.0,15,-99.99,,,-99.99,,2013-01-15 00:40:00,
2013-01-14 16:48:00,38.0,0.0,30.30,SE,126,7.0,7.0,18,-99.99,,,-99.99,,2013-01-15 00:48:00,
2013-01-14 16:56:00,37.0,0.0,30.30,ESE,114,5.0,5.0,17,-99.99,,,-99.99,,2013-01-15 00:56:00,
2013-01-14 17:04:00,36.0,0.0,30.31,ESE,108,5.0,5.0,16,-99.99,,,-99.99,,2013-01-15 01:04:00,
2013-01-14 17:12:00,36.0,0.0,30.31,ESE,112,6.0,7.0,16,-99.99,,,-99.99,,2013-01-15 01:12:00,
2013-01-14 17:20:00,35.0,0.0,30.31,ESE,106,5.0,5.0,19,-99.99,,,-99.99,,2013-01-15 01:20:00,
2013-01-14 17:28:00,35.0,0.0,30.31,ESE,112,5.0,5.0,20,-99.99,,,-99.99,,2013-01-15 01:28:00,
2013-01-14 17:36:00,34.0,0.0,30.32,East,97,5.0,5.0,17,-99.99,,,-99.99,,2013-01-15 01:36:00,
2013-01-14 17:44:00,34.0,0.0,30.32,East,101,5.0,5.0,19,-99.99,,,-99.99,,2013-01-15 01:44:00,
2013-01-14 17:52:00,34.0,0.0,30.33,ENE,73,3.0,3.0,21,-99.99,,,-99.99,,2013-01-15 01:52:00,
2013-01-14 18:00:00,34.0,0.0,30.33,East,79,3.0,3.0,18,-99.99,,,-99.99,,2013-01-15 02:00:00,
2013-01-14 18:08:00,34.0,0.0,30.33,ENE,74,3.0,3.0,20,-99.99,,,-99.99,,2013-01-15 02:08:00,
2013-01-14 18:16:00,34.0,0.0,30.33,ENE,68,2.0,2.0,20,-99.99,,,-99.99,,2013-01-15 02:16:00,
2013-01-14 18:24:00,32.0,0.0,30.33,ENE,67,2.0,2.0,18,-99.99,,,-99.99,,2013-01-15 02:24:00,
2013-01-14 18:32:00,32.0,0.0,30.34,SSW,202,2.0,2.0,18,-99.99,,,-99.99,,2013-01-15 02:32:00,
2013-01-14 18:40:00,30.0,0.0,30.34,East,93,2.0,2.0,20,-99.99,,,-99.99,,2013-01-15 02:40:00,
2013-01-14 18:48:00,30.0,0.0,30.34,NE,53,2.0,2.0,21,-99.99,,,-99.99,,2013-01-15 02:48:00,
2013-01-14 18:56:00,30.0,0.0,30.34,NNE,30,3.0,3.0,18,-99.99,,,-99.99,,2013-01-15 02:56:00,
2013-01-14 19:04:00,29.0,0.0,30.34,North,7,2.0,2.0,20,-99.99,,,-99.99,,2013-01-15 03:04:00,
2013-01-14 19:12:00,28.0,0.0,30.34,WSW,252,3.0,3.0,21,-99.99,,,-99.99,,2013-01-15 03:12:00,
2013-01-14 19:20:00,29.0,0.0,30.35,NW,304,1.0,2.0,21,-99.99,,,-99.99,,2013-01-15 03:20:00,
2013-01-14 19:28:00,30.0,0.0,30.35,WNW,303,0.0,0.0,21,-99.99,,,-99.99,,2013-01-15 03:28:00,
2013-01-14 19:36:00,30.0,0.0,30.35,WNW,303,0.0,1.0,19,-99.99,,,-99.99,,2013-01-15 03:36:00,
2013-01-14 19:44:00,31.0,0.0,30.35,West,273,0.0,0.0,19,-99.99,,,-99.99,,2013-01-15 03:44:00,
2013-01-14 19:52:00,30.0,0.0,30.35,East,101,0.0,1.0,20,-99.99,,,-99.99,,2013-01-15 03:52:00,
2013-01-14 20:00:00,28.0,0.0,30.36,NNE,33,2.0,2.0,19,-99.99,,,-99.99,,2013-01-15 04:00:00,
2013-01-14 20:08:00,25.0,0.0,30.36,NE,41,2.0,2.0,20,-99.99,,,-99.99,,2013-01-15 04:08:00,
2013-01-14 20:16:00,24.0,0.0,30.35,SE,142,2.0,2.0,22,-99.99,,,-99.99,,2013-01-15 04:16:00,
2013-01-14 20:24:00,23.0,0.0,30.37,West,270,2.0,5.0,20,-99.99,,,-99.99,,2013-01-15 04:24:00,
2013-01-14 20:32:00,23.0,0.0,30.37,North,11,1.0,2.0,20,-99.99,,,-99.99,,2013-01-15 04:32:00,
2013-01-14 20:40:00,23.0,0.0,30.38,NE,34,2.0,2.0,21,-99.99,,,-99.99,,2013-01-15 04:40:00,
2013-01-14 20:48:00,24.0,0.0,30.37,SE,144,1.0,2.0,25,-99.99,,,-99.99,,2013-01-15 04:48:00,
2013-01-14 20:56:00,23.0,0.0,30.37,East,84,0.0,1.0,22,-99.99,,,-99.99,,2013-01-15 04:56:00,
2013-01-14 21:00:00,24.0,0.0,30.37,SSW,208,1.0,2.0,21,-99.99,,,-99.99,,2013-01-15 05:00:00,
2013-01-14 21:04:00,24.0,0.0,30.37,SW,223,1.0,2.0,23,-99.99,,,-99.99,,2013-01-15 05:04:00,
2013-01-14 21:12:00,22.0,0.0,30.37,NW,306,2.0,2.0,19,-99.99,,,-99.99,,2013-01-15 05:12:00,
2013-01-14 21:20:00,22.0,0.0,30.36,WSW,242,6.0,6.0,23,-99.99,,,-99.99,,2013-01-15 05:20:00,
2013-01-14 21:28:00,20.0,0.0,30.37,West,264,3.0,3.0,21,-99.99,,,-99.99,,2013-01-15 05:28:00,
2013-01-14 21:36:00,20.0,0.0,30.37,West,263,5.0,6.0,23,-99.99,,,-99.99,,2013-01-15 05:36:00,
2013-01-14 21:44:00,18.0,0.0,30.36,WNW,286,3.0,3.0,25,-99.99,,,-99.99,,2013-01-15 05:44:00,
2013-01-14 21:52:00,19.0,0.0,30.37,NNW,341,0.0,3.0,24,-99.99,,,-99.99,,2013-01-15 05:52:00,
2013-01-14 22:00:00,19.0,0.0,30.36,SE,136,0.0,2.0,23,-99.99,,,-99.99,,2013-01-15 06:00:00,
2013-01-14 22:08:00,18.0,0.0,30.36,SSW,200,5.0,5.0,25,-99.99,,,-99.99,,2013-01-15 06:08:00,
2013-01-14 22:16:00,18.0,0.0,30.35,SSW,213,6.0,6.0,24,-99.99,,,-99.99,,2013-01-15 06:16:00,
2013-01-14 22:24:00,18.0,0.0,30.35,SW,230,7.0,7.0,24,-99.99,,,-99.99,,2013-01-15 06:24:00,
2013-01-14 22:32:00,18.0,0.0,30.35,SSW,194,3.0,3.0,26,-99.99,,,-99.99,,2013-01-15 06:32:00,
2013-01-14 22:40:00,19.0,0.0,30.35,SSW,193,6.0,6.0,24,-99.99,,,-99.99,,2013-01-15 06:40:00,
2013-01-14 22:48:00,19.0,0.0,30.35,SSW,194,3.0,5.0,26,-99.99,,,-99.99,,2013-01-15 06:48:00,
2013-01-14 22:56:00,16.0,0.0,30.36,NE,46,1.0,1.0,25,-99.99,,,-99.99,,2013-01-15 06:56:00,
2013-01-14 23:04:00,15.0,0.0,30.35,NNW,340,0.0,1.0,25,-99.99,,,-99.99,,2013-01-15 07:04:00,
2013-01-14 23:12:00,15.0,0.0,30.36,WNW,296,2.0,3.0,24,-99.99,,,-99.99,,2013-01-15 07:12:00,
2013-01-14 23:20:00,14.0,0.0,30.36,NNW,332,2.0,3.0,26,-99.99,,,-99.99,,2013-01-15 07:20:00,
2013-01-14 23:28:00,14.0,0.0,30.36,NW,322,2.0,2.0,25,-99.99,,,-99.99,,2013-01-15 07:28:00,
2013-01-14 23:36:00,15.0,0.0,30.36,NW,326,2.0,2.0,28,-99.99,,,-99.99,,2013-01-15 07:36:00,
2013-01-14 23:44:00,16.0,0.0,30.36,NNW,347,2.0,2.0,26,-99.99,,,-99.99,,2013-01-15 07:44:00,
2013-01-14 23:52:00,15.0,0.0,30.37,NNE,31,2.0,2.0,25,-99.99,,,-99.99,,2013-01-15 07:52:00,